Rome, GA

11:24 PM EST on November 17, 2019 (GMT -0500)
Russell

Weather History for KRMG - September, 2019

Change the Weather History Date:

Friday, September 20, 2019

  Actual Average Record
Temperature  
Mean Temperature 73 °F 71 °F  
Max Temperature 86 °F 83 °F 98 °F (2005)
Min Temperature 60 °F 59 °F 51 °F (1996)
Degree Days  
Heating Degree Days 0 1  
Month to date heating degree days 0 1  
Since 1 July heating degree days 0 1  
Cooling Degree Days 8 6  
Month to date cooling degree days 314 176  
Year to date cooling degree days 2073 1542  
Growing Degree Days 23 (Base 50)    
Moisture  
Dew Point 55 °F    
Average Humidity 56    
Maximum Humidity 78    
Minimum Humidity 34    
Precipitation  
Precipitation 0.00 in 0.12 in 0.90 in (2002)
Month to date precipitation T 2.09  
Year to date precipitation 42.45 37.51  
Sea Level Pressure  
Sea Level Pressure 30.22 in    
Wind  
Wind Speed 3 mph ()    
Max Wind Speed 13 mph    
Max Gust Speed 16 mph    
Visibility 10.0 miles    
Events      
T = Trace of Precipitation, MM = Missing Value Source: Averaged Metar Reports

Daily Weather History Graph

Daily Weather History Graph

Search for Another Location

Airport or City:

Astronomy

Sep. 20, 2019 Rise Set
Actual Time 7:27 AM EDT 7:40 PM EDT
Civil Twilight 7:02 AM EDT 8:05 PM EDT
Nautical Twilight 6:32 AM EDT 8:34 PM EDT
Astronomical Twilight 6:02 AM EDT 9:04 PM EDT
Moon 11:45 PM EDT (9/20) 1:16 PM EDT (9/20)
Length of Visible Light 13h 03m
Length of Day
12h 13m
Waning Gibbous, 65% of the Moon is Illuminated
Sep 20
Waning Gibbous
Sep 21
Last Quarter
Sep 28
New
Oct 5
First Quarter
Oct 13
Full

Hourly Weather History & Observations

Time (EDT) Temp. Heat Index Dew Point Humidity Pressure Visibility Wind Dir Wind Speed Gust Speed Precip Events Conditions
12:53 AM 70.0 °F - 55.0 °F 59% 30.19 in 10.0 mi Calm Calm - N/A   Clear
1:53 AM 69.1 °F - 55.9 °F 63% 30.20 in 10.0 mi East 3.5 mph - N/A   Clear
2:53 AM 68.0 °F - 55.9 °F 65% 30.20 in 10.0 mi East 5.8 mph - N/A   Clear
3:53 AM 68.0 °F - 55.0 °F 63% 30.20 in 10.0 mi East 6.9 mph - N/A   Scattered Clouds
4:53 AM 66.9 °F - 55.0 °F 66% 30.21 in 10.0 mi East 3.5 mph - N/A   Mostly Cloudy
5:53 AM 63.0 °F - 55.0 °F 75% 30.22 in 10.0 mi East 3.5 mph - N/A   Mostly Cloudy
6:53 AM 62.1 °F - 55.0 °F 78% 30.24 in 10.0 mi Calm Calm - N/A   Clear
7:53 AM 63.0 °F - 55.9 °F 78% 30.26 in 10.0 mi Calm Calm - N/A   Mostly Cloudy
8:53 AM 68.0 °F - 55.0 °F 63% 30.28 in 10.0 mi Calm Calm - N/A   Partly Cloudy
9:53 AM 71.1 °F - 55.0 °F 57% 30.29 in 10.0 mi SSE 5.8 mph - N/A   Clear
10:53 AM 73.9 °F - 53.1 °F 48% 30.30 in 10.0 mi SE 6.9 mph - N/A   Partly Cloudy
11:53 AM 77.0 °F - 52.0 °F 42% 30.29 in 10.0 mi North - - N/A   Clear
12:53 PM 79.0 °F - 52.0 °F 39% 30.26 in 10.0 mi ESE 6.9 mph - N/A   Clear
1:53 PM 82.0 °F 81.3 °F 54.0 °F 38% 30.23 in 10.0 mi SE 6.9 mph - N/A   Clear
2:53 PM 82.9 °F 81.9 °F 54.0 °F 37% 30.20 in 10.0 mi North - - N/A   Clear
3:53 PM 84.0 °F 82.6 °F 54.0 °F 35% 30.19 in 10.0 mi SSW 4.6 mph - N/A   Clear
4:53 PM 84.9 °F 83.6 °F 55.0 °F 36% 30.17 in 10.0 mi SE 5.8 mph - N/A   Clear
5:53 PM 84.9 °F 83.6 °F 55.0 °F 36% 30.17 in 10.0 mi SSE 6.9 mph - N/A   Clear
6:53 PM 82.9 °F 82.0 °F 55.0 °F 38% 30.18 in 10.0 mi SE 5.8 mph - N/A   Clear
7:53 PM 78.1 °F - 55.9 °F 46% 30.19 in 10.0 mi ESE 3.5 mph - N/A   Clear
8:53 PM 73.9 °F - 57.0 °F 55% 30.20 in 10.0 mi Calm Calm - N/A   Clear
9:53 PM 69.1 °F - 57.0 °F 65% 30.22 in 10.0 mi Calm Calm - N/A   Clear
10:53 PM 66.0 °F - 57.9 °F 75% 30.23 in 10.0 mi Calm Calm - N/A   Clear
11:53 PM 64.0 °F - 57.0 °F 78% 30.24 in 10.0 mi Calm Calm - N/A   Clear